FW1349 Weather Reports


Display with metric or nautical units.
time (UTC)temp
F
wind
direction
speed
MPH
gust
MPH
rain 1hr
in
rain 24hr
in
rain mn
in
humidity
%
barometer
mb
20240620053148 62 99 0.0 0.0 0.00 0.00 0.00 79 865.2
20240620053107 63 99 0.0 0.0 0.00 0.00 0.00 79 865.2
20240620052604 63 99 0.0 0.0 0.00 0.00 0.00 78 864.2
20240620052143 63 99 0.0 0.0 0.00 0.00 0.00 78 865.0
20240620051553 63 99 0.0 0.0 0.00 0.00 0.00 77 865.9
20240620051138 63 99 0.0 0.0 0.00 0.00 0.00 77 865.3
20240620050548 63 99 0.0 0.0 0.00 0.00 0.00 76 865.8
20240620050059 64 99 0.0 0.0 0.00 0.00 0.00 76 865.5
20240620045701 64 99 0.0 0.0 0.00 0.00 0.00 76 865.7
20240620045145 64 99 0.0 0.0 0.00 0.00 0.00 75 865.9
20240620044945 64 99 0.0 0.0 0.00 0.00 0.00 75 866.1
20240620044219 64 99 0.0 0.0 0.00 0.00 0.00 74 865.7
20240620043711 64 99 0.0 0.0 0.00 0.00 0.00 74 865.9
20240620043225 64 99 0.0 0.0 0.00 0.00 0.00 74 865.8
20240620042716 65 99 0.0 0.0 0.00 0.00 0.00 74 865.8
20240620042136 65 99 0.0 0.0 0.00 0.00 0.00 74 865.9
20240620041738 65 99 0.0 0.0 0.00 0.00 0.00 74 865.9
20240620041150 65 99 0.0 0.0 0.00 0.00 0.00 73 866.0
20240620040731 65 99 0.0 0.0 0.00 0.00 0.00 72 866.0
20240620040559 65 99 0.0 0.0 0.00 0.00 0.00 72 865.9
20240620040057 65 99 0.0 0.0 0.00 0.00 0.00 72 865.9
20240620035616 66 99 0.0 0.0 0.00 0.00 0.00 72 865.9
20240620035146 66 99 0.0 0.0 0.00 0.00 0.00 72 866.0
20240620034930 66 99 0.0 0.0 0.00 0.00 0.00 71 865.7
20240620034333 66 99 0.0 0.0 0.00 0.00 0.00 70 865.9
20240620034326 66 99 0.0 0.0 0.00 0.00 0.00 70 865.9
20240620033613 66 99 0.0 0.0 0.00 0.00 0.00 70 866.0
20240620033058 67 99 0.0 0.0 0.00 0.00 0.00 70 866.0
20240620032647 67 99 0.0 0.0 0.00 0.00 0.00 69 866.0
20240620032600 67 99 0.0 0.0 0.00 0.00 0.00 69 865.8
20240620032054 67 99 0.0 0.0 0.00 0.00 0.00 69 866.0
20240620031701 67 99 0.0 0.0 0.00 0.00 0.00 69 865.9
20240620031117 67 99 0.0 0.0 0.00 0.00 0.00 68 865.9
20240620030607 67 99 0.0 0.0 0.00 0.00 0.00 68 866.0
20240620030112 68 99 0.0 0.0 0.00 0.00 0.00 68 866.0
20240620025859 68 99 0.0 0.0 0.00 0.00 0.00 68 866.0
20240620025141 68 99 0.0 0.0 0.00 0.00 0.00 67 865.6
20240620024605 68 99 0.0 0.0 0.00 0.00 0.00 67 863.5
20240620024137 69 99 0.0 0.0 0.00 0.00 0.00 66 866.2
20240620023605 69 99 0.0 0.0 0.00 0.00 0.00 66 865.5
20240620023419 69 99 0.0 0.0 0.00 0.00 0.00 66 865.6
20240620023105 69 99 0.0 0.0 0.00 0.01 0.00 66 865.8
20240620022817 69 99 0.0 0.0 0.00 0.00 0.00 65 865.8
20240620022132 69 99 0.0 0.0 0.00 0.00 0.00 65 865.4
20240620021559 70 99 0.0 0.0 0.00 0.00 0.00 63 867.9
20240620021123 70 99 0.0 0.0 0.00 0.00 0.00 62 869.0
20240620020548 70 99 0.0 0.0 0.00 0.00 0.00 62 867.4
20240620020440 70 99 0.0 0.0 0.00 0.00 0.00 62 867.0
20240620015937 71 99 0.0 0.0 0.00 0.00 0.00 61 869.0
20240620015313 71 99 0.0 0.0 0.00 0.00 0.00 63 869.1
20240620014647 71 99 0.0 0.0 0.00 0.00 0.00 62 871.8
20240620014134 71 99 0.0 0.0 0.00 0.00 0.00 62 871.8
20240620013820 71 99 0.0 0.0 0.00 0.00 0.00 62 870.6
20240620013322 72 99 0.0 0.0 0.00 0.00 0.00 62 869.8
20240620012552 72 99 0.0 0.0 0.00 0.00 0.00 61 868.9
20240620012130 72 99 0.0 0.0 0.00 0.00 0.00 62 869.7
20240620011716 72 99 0.0 0.0 0.00 0.00 0.00 62 867.9
20240620011210 72 99 0.0 0.0 0.00 0.00 0.00 62 869.9
20240620010713 72 99 0.0 0.0 0.00 0.00 0.00 61 868.7
20240620010216 72 99 0.0 0.0 0.00 0.00 0.00 59 869.9
20240620005140 73 99 0.0 0.0 0.00 0.00 0.00 58 867.4
20240620004144 73 99 0.0 2.0 0.00 0.00 0.00 59 866.3
20240620004055 73 99 0.0 2.0 0.00 0.13 0.00 58 866.0
20240620003635 73 99 0.0 2.0 0.00 0.00 0.00 56 865.7
20240620002624 73 99 1.0 3.0 0.00 0.00 0.00 57 865.7
20240620002150 73 99 1.0 3.0 0.00 0.00 0.00 56 864.9
20240620001723 74 99 1.0 2.0 0.00 0.00 0.00 56 864.2
20240620001643 74 99 0.0 2.0 0.00 0.13 0.00 56 864.2
20240620001138 74 99 0.0 0.0 0.00 0.00 0.00 56 864.6
20240620000614 74 99 0.0 2.0 0.00 0.00 0.00 55 864.2
20240620000138 74 99 1.0 2.0 0.00 0.00 0.00 55 864.2
20240619235718 74 99 0.0 2.0 0.00 0.00 0.00 54 863.8
20240619235213 74 94 1.0 2.0 0.00 0.00 0.00 57 864.6
20240619234712 74 94 1.0 3.0 0.00 0.00 0.00 55 864.2
20240619234555 74 94 2.0 3.0 0.00 0.13 0.00 56 864.2
20240619234057 74 121 2.0 4.0 0.00 0.00 0.00 55 864.6
20240619233640 74 86 2.0 4.0 0.00 0.00 0.00 55 864.7
20240619233215 75 80 2.0 4.0 0.00 0.00 0.00 55 863.9
20240619233128 75 80 2.0 4.0 0.00 0.13 0.00 55 863.9
20240619232627 75 132 2.0 4.0 0.00 0.00 0.00 54 863.9
20240619232052 75 92 2.0 4.0 0.00 0.00 0.00 52 863.9
20240619231711 76 82 1.0 3.0 0.00 0.00 0.00 54 863.9
20240619231144 76 115 1.0 3.0 0.00 0.00 0.00 53 863.9
20240619230712 76 115 1.0 3.0 0.00 0.00 0.00 53 864.3
20240619230607 76 115 1.0 3.0 0.00 0.13 0.00 53 864.3
20240619230109 76 98 1.0 3.0 0.00 0.00 0.00 53 863.9
20240619225714 76 97 1.0 3.0 0.00 0.00 0.00 54 864.0
20240619225212 76 119 1.0 3.0 0.00 0.00 0.00 56 864.0
20240619225048 76 206 1.0 3.0 0.00 0.13 0.00 54 864.0
20240619224549 76 128 2.0 4.0 0.00 0.00 0.00 52 864.0
20240619224122 76 134 2.0 4.0 0.00 0.00 0.00 52 864.0
20240619223648 76 144 1.0 3.0 0.00 0.00 0.00 52 864.0
20240619223055 76 44 1.0 3.0 0.00 0.00 0.00 54 863.9
20240619222656 76 119 1.0 3.0 0.00 0.00 0.00 52 864.0
20240619222205 77 121 1.0 3.0 0.00 0.00 0.00 51 863.9
20240619221637 77 121 1.0 2.0 0.00 0.00 0.00 52 863.9
20240619221214 77 106 1.0 2.0 0.00 0.00 0.00 52 863.9
20240619221115 77 107 1.0 2.0 0.00 0.13 0.00 54 863.9
20240619220615 77 236 1.0 4.0 0.00 0.00 0.00 52 864.0
20240619220122 77 236 1.0 4.0 0.00 0.00 0.00 51 863.9
20240619215721 76 92 1.0 3.0 0.00 0.00 0.00 54 864.0
20240619215607 76 92 1.0 3.0 0.00 0.13 0.00 53 864.0
20240619215106 76 92 1.0 5.0 0.00 0.00 0.00 57 864.0
20240619214641 76 92 2.0 5.0 0.00 0.00 0.00 53 863.9
20240619214150 76 94 2.0 6.0 0.00 0.00 0.00 54 863.9
20240619213613 76 52 2.0 4.0 0.00 0.00 0.00 55 863.9
20240619213127 76 65 2.0 4.0 0.00 0.00 0.00 55 863.9
20240619212650 75 82 2.0 3.0 0.00 0.00 0.00 56 863.9
20240619212117 75 101 2.0 3.0 0.00 0.00 0.00 55 863.8
20240619211658 75 96 0.0 2.0 0.00 0.00 0.00 60 863.8
20240619211217 75 84 1.0 5.0 0.00 0.00 0.00 60 863.8
20240619210646 74 84 2.0 5.0 0.00 0.00 0.00 58 863.8
20240619210607 74 84 2.0 5.0 0.00 0.13 0.00 59 863.8
20240619210050 74 114 1.0 3.0 0.00 0.00 0.00 58 863.7
20240619205623 73 103 1.0 4.0 0.00 0.00 0.00 59 863.7
20240619204708 73 199 2.0 5.0 0.00 0.00 0.00 59 863.4
20240619204145 72 97 1.0 5.0 0.00 0.00 0.00 59 863.8
20240619203917 72 76 1.0 3.0 0.00 0.00 0.00 62 863.6
20240619203158 72 57 1.0 4.0 0.00 0.00 0.00 61 863.5
20240619202659 71 57 1.0 4.0 0.00 0.00 0.00 59 863.6
20240619202413 71 57 1.0 5.0 0.00 0.00 0.00 60 863.6
20240619201610 71 34 2.0 5.0 0.00 0.00 0.00 60 863.7
20240619201445 71 59 2.0 5.0 0.00 0.00 0.00 60 863.7
20240619200647 71 104 2.0 4.0 0.00 0.00 0.00 58 863.7
20240619200139 71 103 2.0 4.0 0.00 0.00 0.00 57 863.7
20240619200050 71 103 2.0 4.0 0.00 0.13 0.00 57 863.7
20240619195546 71 142 2.0 7.0 0.00 0.00 0.00 58 863.6
20240619195505 71 104 3.0 7.0 0.00 0.00 0.00 59 863.6
20240619195126 71 104 3.0 7.0 0.00 0.13 0.00 58 863.6
20240619194618 72 127 3.0 5.0 0.00 0.00 0.00 59 863.7
20240619194140 72 28 3.0 5.0 0.00 0.00 0.00 59 863.3
20240619194058 72 125 3.0 5.0 0.00 0.13 0.00 59 863.3
20240619193600 72 88 3.0 5.0 0.00 0.00 0.00 60 863.7
20240619193334 72 153 3.0 5.0 0.00 0.00 0.00 59 863.7
20240619192732 73 126 3.0 4.0 0.00 0.00 0.00 61 863.5
20240619192140 73 40 3.0 5.0 0.00 0.00 0.00 58 863.8
20240619191722 72 134 3.0 5.0 0.00 0.00 0.00 61 863.8
20240619191605 72 93 2.0 5.0 0.00 0.13 0.00 61 863.8
20240619191320 72 132 2.0 5.0 0.00 0.00 0.00 60 863.8
20240619190633 72 86 3.0 5.0 0.00 0.00 0.00 59 863.8
20240619190109 72 64 3.0 6.0 0.00 0.00 0.00 62 863.8
20240619185658 71 114 2.0 6.0 0.00 0.00 0.00 62 863.8
20240619185429 71 88 2.0 6.0 0.00 0.00 0.00 62 863.7
20240619184714 71 88 3.0 6.0 0.00 0.00 0.00 62 863.7
20240619184149 71 115 2.0 6.0 0.00 0.00 0.00 61 863.7
20240619183743 71 24 2.0 5.0 0.00 0.00 0.00 61 863.8
20240619183545 71 85 2.0 7.0 0.00 0.13 0.00 63 863.8
20240619183047 71 94 2.0 7.0 0.00 0.00 0.00 61 863.8
20240619182556 71 88 2.0 4.0 0.00 0.00 0.00 63 863.8
20240619182133 71 111 2.0 4.0 0.00 0.00 0.00 62 863.8
20240619181606 71 50 2.0 5.0 0.00 0.00 0.00 63 863.8
20240619181319 71 116 2.0 5.0 0.00 0.00 0.00 62 863.8
20240619180603 70 121 2.0 5.0 0.00 0.00 0.00 62 863.7
20240619180118 70 107 3.0 6.0 0.00 0.00 0.00 62 863.8
20240619175717 70 38 3.0 6.0 0.00 0.00 0.00 63 863.7
20240619175604 70 28 3.0 6.0 0.00 0.13 0.00 62 863.7
20240619175049 70 116 2.0 5.0 0.00 0.00 0.00 65 863.8
20240619174553 70 71 2.0 5.0 0.00 0.00 0.00 66 863.7
20240619174100 70 70 2.0 5.0 0.00 0.00 0.00 65 863.8
20240619173623 70 111 2.0 5.0 0.00 0.00 0.00 65 863.6
20240619173236 70 71 2.0 4.0 0.00 0.00 0.00 68 863.7
20240619172717 69 136 2.0 6.0 0.00 0.00 0.00 65 863.6
20240619172129 69 15 2.0 6.0 0.00 0.00 0.00 67 863.3
20240619171646 69 131 2.0 5.0 0.00 0.00 0.00 67 863.1
20240619171358 69 90 2.0 6.0 0.00 0.00 0.00 68 863.3
20240619170608 69 48 2.0 6.0 0.00 0.00 0.00 68 862.9
20240619170349 68 103 2.0 5.0 0.00 0.00 0.00 68 863.9
20240619165643 68 103 3.0 9.0 0.00 0.00 0.00 68 863.4
20240619165122 68 121 3.0 9.0 0.00 0.00 0.00 68 863.1
20240619164551 68 127 3.0 7.0 0.00 0.00 0.00 67 863.0
20240619164217 68 62 3.0 7.0 0.00 0.00 0.00 67 863.7
20240619163655 68 47 3.0 7.0 0.00 0.00 0.00 67 863.9
20240619163549 68 73 3.0 7.0 0.00 0.13 0.00 68 863.4
20240619163048 68 340 3.0 5.0 0.00 0.00 0.00 69 863.4
20240619162654 68 119 3.0 5.0 0.00 0.00 0.00 68 864.3
20240619162608 68 122 3.0 5.0 0.00 0.13 0.00 68 864.3
20240619162110 68 86 3.0 5.0 0.00 0.00 0.00 69 864.3
20240619161639 68 21 3.0 6.0 0.00 0.00 0.00 69 864.3
20240619161217 68 26 3.0 6.0 0.00 0.00 0.00 69 864.3
20240619160724 67 140 3.0 7.0 0.00 0.00 0.00 68 864.3
20240619160333 67 102 3.0 6.0 0.00 0.00 0.00 68 864.3
20240619155610 67 84 3.0 6.0 0.00 0.00 0.00 69 864.2
20240619155145 67 130 4.0 6.0 0.00 0.00 0.00 70 864.0
20240619154618 67 105 3.0 6.0 0.00 0.00 0.00 70 864.2
20240619154110 67 117 3.0 6.0 0.00 0.00 0.00 70 864.2
20240619153616 67 55 3.0 7.0 0.00 0.00 0.00 70 864.2
20240619153229 67 88 3.0 7.0 0.00 0.00 0.00 71 864.2
20240619152919 67 119 2.0 6.0 0.00 0.00 0.00 72 864.2
20240619152156 67 80 3.0 6.0 0.00 0.00 0.00 71 864.2
20240619151647 66 304 3.0 7.0 0.00 0.00 0.00 71 864.2
20240619151546 66 103 3.0 7.0 0.00 0.13 0.00 71 864.2
20240619151047 66 112 3.0 7.0 0.00 0.00 0.00 72 864.2
20240619150825 66 130 2.0 7.0 0.00 0.13 0.00 72 864.2
20240619150814 66 130 2.0 7.0 0.00 0.00 0.00 72 864.4
20240619150052 66 134 2.0 7.0 0.00 0.00 0.00 73 864.5
20240619145641 66 130 2.0 7.0 0.00 0.00 0.00 74 864.4
20240619145152 65 132 3.0 7.0 0.00 0.00 0.00 73 864.6
20240619144605 65 116 3.0 6.0 0.00 0.00 0.00 73 865.1
20240619144144 65 134 3.0 6.0 0.00 0.00 0.00 74 865.1
20240619143659 65 131 3.0 7.0 0.00 0.00 0.00 75 864.9
20240619143201 65 133 3.0 7.0 0.00 0.00 0.00 73 865.0
20240619142658 65 94 3.0 6.0 0.00 0.00 0.00 74 865.5
20240619142121 65 120 3.0 6.0 0.00 0.00 0.00 75 865.5
20240619142046 65 103 3.0 7.0 0.00 0.00 0.00 74 865.5
20240619142042 65 111 3.0 7.0 0.00 0.13 0.00 75 865.5
20240619141105 64 132 3.0 7.0 0.00 0.00 0.00 75 865.5
20240619140629 64 74 3.0 7.0 0.00 0.00 0.00 76 865.4
20240619140154 64 44 3.0 6.0 0.00 0.00 0.00 77 865.4
20240619140114 64 84 3.0 6.0 0.00 0.13 0.00 77 865.4
20240619135610 64 132 2.0 6.0 0.00 0.00 0.00 77 865.3
20240619135057 63 110 2.0 6.0 0.00 0.00 0.00 77 865.3
20240619134651 63 134 3.0 6.0 0.00 0.00 0.00 77 865.3
20240619134147 63 99 3.0 6.0 0.00 0.00 0.00 77 865.3
20240619133701 63 96 3.0 6.0 0.00 0.00 0.00 77 865.3
20240619132614 63 75 2.0 5.0 0.00 0.00 0.00 78 865.3
20240619132239 63 119 3.0 6.0 0.00 0.00 0.00 78 865.3
20240619131714 63 48 3.0 6.0 0.00 0.00 0.00 78 865.3
20240619131624 63 35 3.0 6.0 0.00 0.13 0.00 78 865.3
20240619131121 62 51 2.0 5.0 0.00 0.00 0.00 79 865.3
20240619130557 62 115 3.0 7.0 0.00 0.00 0.00 80 865.3
20240619130404 62 150 3.0 7.0 0.00 0.00 0.00 80 865.3
20240619130047 62 150 3.0 7.0 0.00 0.13 0.00 80 865.2
20240619125550 62 128 2.0 5.0 0.00 0.00 0.00 81 865.2
20240619125212 62 103 2.0 4.0 0.00 0.00 0.00 81 865.2
20240619125106 62 120 2.0 4.0 0.00 0.13 0.00 81 865.2
20240619124553 62 100 2.0 4.0 0.00 0.00 0.00 81 865.2
20240619124402 63 88 2.0 4.0 0.00 0.00 0.00 82 865.2
20240619123946 63 13 1.0 4.0 0.00 0.00 0.00 82 865.2
20240619123405 63 59 1.0 3.0 0.00 0.00 0.00 82 865.2
20240619122609 63 112 1.0 3.0 0.00 0.00 0.00 82 865.2
20240619122133 63 109 1.0 3.0 0.00 0.00 0.00 82 865.2
20240619121743 63 63 2.0 5.0 0.00 0.00 0.00 82 865.2
20240619121556 63 63 2.0 5.0 0.00 0.13 0.00 82 865.2
20240619121059 63 69 2.0 7.0 0.00 0.00 0.00 82 865.2
20240619120650 63 86 2.0 7.0 0.00 0.00 0.00 82 865.2
20240619120129 63 105 2.0 7.0 0.00 0.00 0.00 82 864.3
20240619115553 63 76 1.0 7.0 0.00 0.00 0.00 83 863.0
20240619115104 63 349 1.0 3.0 0.00 0.00 0.00 83 863.6
20240619115040 63 348 1.0 5.0 0.00 0.00 0.00 83 862.5
20240619115034 63 70 1.0 5.0 0.00 0.13 0.00 83 862.5
20240619114055 63 77 1.0 4.0 0.00 0.00 0.00 82 862.7
20240619113546 63 95 2.0 4.0 0.00 0.00 0.00 82 862.9
20240619113143 63 52 2.0 5.0 0.00 0.00 0.00 82 863.0
20240619112713 63 94 1.0 5.0 0.00 0.00 0.00 82 863.2
20240619112342 63 122 0.0 0.0 0.00 0.00 0.00 82 863.1
20240619111603 63 59 0.0 3.0 0.00 0.00 0.00 82 863.2
20240619111201 63 59 1.0 3.0 0.00 0.00 0.00 82 863.2
20240619110637 63 59 1.0 3.0 0.00 0.00 0.00 82 863.2
20240619110543 63 59 1.0 3.0 0.00 0.00 0.00 82 863.2
20240619110107 63 58 1.0 3.0 0.00 0.13 0.00 82 863.2
20240619104123 63 27 2.0 4.0 0.00 0.00 0.00 82 863.2
20240619103929 63 63 2.0 4.0 0.00 0.00 0.00 83 863.2
20240619103619 63 92 1.0 4.0 0.00 0.13 0.00 83 863.2
20240619103112 63 92 2.0 5.0 0.00 0.00 0.00 84 863.1
20240619102556 63 90 2.0 7.0 0.00 0.00 0.00 84 863.0
20240619102109 63 98 1.0 4.0 0.00 0.00 0.00 85 862.1
20240619101610 63 63 2.0 5.0 0.00 0.00 0.00 85 862.2
20240619101155 63 84 1.0 5.0 0.00 0.00 0.00 85 860.6
20240619100647 63 75 0.0 4.0 0.00 0.00 0.00 85 860.6
20240619100145 63 72 1.0 4.0 0.00 0.00 0.00 85 861.3
20240619095616 63 71 2.0 3.0 0.00 0.00 0.00 85 860.9
20240619095357 63 99 1.0 3.0 0.00 0.00 0.00 85 860.9
20240619094631 63 89 2.0 8.0 0.00 0.00 0.00 85 862.2
20240619094117 63 78 2.0 8.0 0.00 0.00 0.00 85 862.2
20240619093728 63 73 1.0 5.0 0.00 0.00 0.00 85 863.3
20240619093205 63 107 1.0 5.0 0.00 0.00 0.00 85 864.0
20240619092612 63 355 2.0 4.0 0.00 0.00 0.00 85 864.0
20240619092138 63 83 2.0 7.0 0.00 0.00 0.00 85 864.0
20240619091846 63 90 2.0 5.0 0.00 0.00 0.00 86 864.0
20240619091127 63 154 2.0 5.0 0.00 0.00 0.00 85 864.0
20240619090611 63 16 2.0 5.0 0.00 0.00 0.00 86 864.0
20240619090131 64 19 2.0 9.0 0.00 0.00 0.00 86 864.0
20240619085903 64 62 2.0 9.0 0.00 0.00 0.00 86 864.0
20240619085232 64 81 2.0 7.0 0.00 0.00 0.00 86 864.0
20240619084638 64 121 2.0 5.0 0.00 0.00 0.00 86 864.0
20240619084127 64 64 2.0 5.0 0.00 0.00 0.00 87 864.0
20240619083829 64 83 2.0 4.0 0.00 0.00 0.00 87 864.0
20240619083212 64 93 2.0 10.0 0.00 0.00 0.00 87 863.9
20240619082647 64 288 2.0 10.0 0.00 0.00 0.00 87 863.9
20240619082128 64 80 2.0 7.0 0.00 0.00 0.00 87 864.0
20240619081909 64 195 2.0 7.0 0.00 0.00 0.00 87 863.9
20240619081234 64 40 2.0 7.0 0.00 0.00 0.00 87 863.9
20240619081106 64 82 2.0 7.0 0.00 0.13 0.00 87 863.9
20240619080549 64 78 3.0 5.0 0.00 0.00 0.00 88 863.9
20240619080153 64 82 3.0 11.0 0.00 0.00 0.00 88 863.9
20240619075622 64 74 3.0 11.0 0.00 0.00 0.00 87 863.9
20240619075134 64 125 4.0 10.0 0.00 0.00 0.00 88 864.0
20240619074653 64 127 3.0 7.0 0.00 0.00 0.00 88 863.9
20240619074211 64 111 3.0 7.0 0.00 0.00 0.00 88 863.9
20240619073707 64 131 3.0 9.0 0.00 0.00 0.00 89 863.9
20240619073605 64 55 3.0 9.0 0.00 0.13 0.00 89 863.9
20240619073105 64 102 2.0 9.0 0.00 0.00 0.00 89 863.9
20240619072545 64 98 3.0 12.0 0.00 0.00 0.00 89 863.9
20240619072111 64 96 3.0 12.0 0.00 0.00 0.00 89 863.9
20240619071632 64 181 2.0 5.0 0.00 0.00 0.00 90 863.5
20240619071113 64 82 2.0 5.0 0.00 0.00 0.00 90 863.4
20240619070910 64 63 2.0 5.0 0.00 0.00 0.00 90 863.3
20240619070452 64 88 2.0 5.0 0.00 0.00 0.00 90 860.8
20240619070123 64 5 2.0 5.0 0.00 0.13 0.00 90 860.8
20240619065623 64 195 2.0 5.0 0.00 0.00 0.00 90 860.8
20240619065229 65 91 2.0 5.0 0.00 0.00 0.00 90 861.2
20240619064317 65 78 2.0 5.0 0.00 0.13 0.00 90 864.5
20240619064305 65 78 2.0 5.0 0.00 0.00 0.00 90 863.8
20240619063556 65 138 2.0 5.0 0.00 0.00 0.00 90 864.5
20240619063148 65 109 2.0 5.0 0.00 0.00 0.00 90 863.8
20240619061736 65 86 2.0 5.0 0.00 0.00 0.00 91 864.5
20240619061557 65 73 2.0 5.0 0.00 0.13 0.00 91 864.5
20240619061100 65 170 2.0 7.0 0.00 0.00 0.00 91 864.5
20240619060700 65 148 2.0 10.0 0.00 0.00 0.00 91 864.5
20240619060208 65 74 3.0 10.0 0.00 0.00 0.00 90 864.5
20240619055626 65 107 3.0 10.0 0.00 0.00 0.00 91 864.6
20240619055232 65 61 3.0 10.0 0.00 0.00 0.00 91 864.6
20240619054638 65 42 3.0 10.0 0.00 0.00 0.00 91 864.6
20240619054208 65 167 3.0 6.0 0.00 0.00 0.00 91 864.6